This demonstration page uses our WeatherBlox Daily Observations layout. Learn more.

Left ArrowRight Arrow

Hourly Observations for August 4, 2021

Temp ( °F °C ) Dew Point ( °F °C ) Humidity (%) Winds ( mph kmh ) Pressure ( in mb ) Visibility ( mi km ) Precip ( " mm )
12:53 am 00:53 Clear 61 16.1 58 14.4 90 90 N N/A 30.07 1018 10 16 N/A
1:53 am 01:53 Clear 59 15 58 14.4 96 96 N N/A 30.07 1018 10 16 N/A
2:53 am 02:53 Clear 58 14.4 57 13.9 97 97 N N/A 30.06 1018 10 16 N/A
3:53 am 03:53 Clear 57 13.9 56 13.3 96 96 N N/A 30.06 1018 10 16 N/A
4:53 am 04:53 Clear 56 13.3 55 12.8 97 97 N N/A 30.07 1018 10 16 N/A
5:53 am 05:53 Clear 56 13.3 55 12.8 97 97 W 3 6 30.08 1019 10 16 N/A
6:53 am 06:53 Sunny 56 13.3 55 12.8 97 97 N N/A 30.09 1019 10 16 N/A
7:53 am 07:53 Sunny 61 16.1 57 13.9 87 87 N N/A 30.10 1019 10 16 N/A
8:53 am 08:53 Sunny 68 20 57 13.9 68 68 N N/A 30.11 1020 10 16 N/A
9:53 am 09:53 Sunny 74 23.3 57 13.9 56 56 ENE 8 13 30.11 1020 10 16 N/A
10:53 am 10:53 Partly Cloudy 78 25.6 57 13.9 48 48 NE 9 15 30.11 1020 10 16 N/A
11:53 am 11:53 Mostly Cloudy 80 26.7 55 12.8 42 42 ENE 10 17 30.11 1020 10 16 N/A
12:53 pm 12:53 Mostly Cloudy 83 28.3 56 13.3 40 40 E 14 22 30.11 1020 10 16 N/A
1:53 pm 13:53 Mostly Sunny 82 27.8 55 12.8 40 40 ENE 8 13 30.10 1019 10 16 N/A
2:53 pm 14:53 Partly Cloudy 82 27.8 55 12.8 40 40 E 9 15 30.09 1019 10 16 N/A
3:53 pm 15:53 Mostly Cloudy 82 27.8 56 13.3 41 41 E 8 13 30.09 1019 10 16 N/A
4:53 pm 16:53 Cloudy 81 27.2 57 13.9 44 44 NE 8 13 30.08 1019 10 16 N/A
5:53 pm 17:53 Partly Cloudy 81 27.2 57 13.9 44 44 ENE 10 17 30.07 1018 10 16 N/A
6:53 pm 18:53 Mostly Cloudy 82 27.8 58 14.4 44 44 NE 5 7 30.07 1018 10 16 N/A
7:53 pm 19:53 Cloudy 77 25 58 14.4 52 52 E 5 7 30.08 1019 10 16 N/A
8:53 pm 20:53 Cloudy 71 21.7 63 17.2 76 76 N N/A 30.08 1019 10 16 N/A
9:53 pm 21:53 Cloudy 69 20.6 62 16.7 78 78 N N/A 30.09 1019 10 16 N/A
10:53 pm 22:53 Partly Cloudy 66 18.9 61 16.1 84 84 N N/A 30.10 1019 10 16 N/A
11:53 pm 23:53 Cloudy 67 19.4 61 16.1 81 81 WNW 3 6 30.11 1020 10 16 N/A

Powered by AerisWeather